EHI
0 0 0 0 0 0 0 0 0 0 0 2 5 11 17 21 23 23 26 30 33 39 49 53 49 42 35 29 28 30 30 26 24 24 23 22 23 23 19 16 14 16 18 17
0 0 0 0 0 0 0 0 0 0 1 3 7 12 17 21 24 26 27 31 34 40 49 53 49 44 38 34 33 33 31 26 24 24 22 21 22 22 22 20 19 19 19 19
0 0 0 0 0 0 0 0 0 0 1 4 8 13 18 23 28 29 29 31 34 38 44 47 46 43 39 36 37 37 32 26 24 22 20 19 19 21 23 24 25 24 24 24
0 0 0 0 0 0 0 0 0 1 2 4 7 11 17 24 30 31 29 30 31 32 36 39 41 42 37 34 37 38 32 26 24 22 20 19 20 23 24 26 28 30 30 30
0 0 0 0 0 0 0 0 0 1 3 4 5 8 14 23 29 30 29 28 27 25 28 33 37 40 36 33 36 38 33 28 25 24 23 23 24 25 25 26 29 30 30 30
0 0 0 0 0 0 0 0 1 3 5 6 6 9 16 24 30 32 32 31 29 27 30 34 38 40 38 35 36 36 32 28 25 24 24 26 27 27 25 26 27 27 26 26
0 0 0 0 0 0 0 2 3 5 7 8 9 13 21 27 32 35 37 37 35 34 36 39 41 41 40 37 36 35 32 28 25 24 25 26 28 28 27 27 28 27 25 24
0 0 0 1 2 2 3 5 5 6 7 8 10 15 22 28 33 36 38 39 38 37 37 38 39 39 37 34 34 35 34 30 27 26 26 26 28 29 29 28 28 26 23 22
0 0 2 4 5 6 8 8 6 6 6 7 10 14 21 28 32 34 36 37 38 36 33 33 33 34 33 31 32 34 34 30 27 27 27 27 28 28 28 27 25 22 20 20
1 2 4 8 10 11 12 11 9 7 7 7 9 13 21 28 33 36 37 37 37 35 31 30 31 32 31 31 32 31 30 27 24 25 27 28 27 26 25 24 22 20 19 19
4 4 7 10 12 16 18 17 16 12 9 8 9 14 22 30 36 40 40 38 37 36 33 30 31 32 31 30 29 27 25 23 20 20 23 24 23 21 18 17 16 16 16 15
5 7 9 12 14 18 22 23 21 17 12 11 12 16 22 29 35 38 37 36 35 34 33 32 31 30 28 26 24 23 22 19 15 15 18 19 17 13 9 7 6 7 8 8
7 9 12 14 16 18 20 22 23 22 19 17 16 17 20 26 31 32 31 31 30 29 29 30 29 27 24 21 19 20 20 18 14 13 15 15 12 8 4 2 2 2 2 2
9 10 13 15 16 17 18 20 23 25 24 22 20 19 21 23 26 26 26 26 25 22 22 25 26 25 21 17 15 15 17 17 15 14 13 12 10 7 5 4 4 4 2 1
9 10 11 12 14 16 16 19 22 23 22 21 19 19 20 22 23 24 23 22 21 19 19 21 22 20 17 12 9 9 12 14 14 12 11 9 9 8 6 6 6 5 5 4
8 9 9 10 12 14 14 15 17 17 16 16 15 15 16 18 20 22 22 21 20 18 17 19 19 17 13 7 5 6 7 8 8 8 7 7 7 6 6 5 5 5 6 6
7 7 9 9 9 11 11 10 9 10 11 12 11 10 11 12 14 16 17 18 17 14 13 14 16 16 12 7 4 5 6 5 4 2 3 4 4 3 3 4 5 6 6 6
6 6 6 6 6 6 7 7 6 6 8 9 9 8 7 8 9 10 11 12 11 9 8 9 12 13 12 8 5 4 4 3 1 0 0 1 1 1 1 3 4 5 5 5
5 5 4 4 4 5 6 7 6 5 5 6 6 6 5 5 5 6 8 8 7 7 7 7 7 7 8 6 3 2 2 1 0 0 0 0 0 0 0 1 1 2 3 4
6 6 6 5 5 5 6 7 6 4 3 4 4 3 3 2 2 3 6 6 7 7 7 5 4 5 5 3 2 1 1 0 0 0 0 0 0 0 0 0 0 0 1 2
6 6 6 5 4 4 5 5 4 2 1 1 1 1 1 0 0 1 3 4 5 6 6 5 4 4 4 2 1 2 2 0 0 0 0 0 0 0 0 0 0 0 1 1
5 6 5 4 3 3 4 3 2 1 1 0 0 0 0 0 0 0 1 2 3 3 5 5 3 2 2 2 1 1 1 0 0 0 0 0 0 0 0 0 0 0 0 0
6 6 5 4 3 4 4 3 1 0 0 0 0 0 0 0 0 1 1 2 2 1 2 3 1 0 1 2 2 2 1 1 1 0 0 0 0 0 0 0 0 0 0 0
6 6 5 4 3 3 3 1 0 0 0 0 0 0 0 1 1 1 1 1 1 0 0 0 0 0 1 2 3 3 2 2 1 0 0 0 0 0 0 0 0 0 0 0
6 5 4 3 3 3 2 1 0 0 0 0 0 0 0 1 1 0 0 0 0 0 0 0 0 0 1 2 2 2 1 1 1 0 0 0 0 0 0 0 0 0 0 0
5 4 3 3 3 2 1 0 0 0 0 0 0 0 0 0 0 0 0 0 0 0 1 1 0 0 0 1 1 1 0 0 0 0 0 0 0 0 0 0 0 0 0 0
4 4 3 3 2 1 0 0 0 0 0 0 0 0 0 0 0 0 0 0 0 1 2 2 1 0 0 0 0 0 0 0 0 0 0 0 0 0 0 0 0 0 0 0
Wind_Speed
10 7 9 11 13 14 15 14 12 10 10 6 4 4 3 4 5 5 5 5 5 5 5 6 7 7 7 6 6 6 6 5 5 5 4 4 3 3 2 2 1 1 1 1
11 10 11 12 14 14 15 14 14 13 11 5 3 4 4 5 6 6 5 5 5 5 5 6 7 8 7 7 6 6 6 6 5 5 4 4 3 3 3 2 1 1 1 1
12 11 12 16 15 14 13 13 13 13 9 5 5 5 5 6 7 6 6 5 5 6 5 6 7 7 7 7 7 7 6 6 6 5 5 4 4 3 3 3 2 2 1 1
10 10 17 9 7 10 11 11 11 10 8 6 5 5 4 4 5 6 5 5 5 5 5 5 6 7 7 7 8 7 6 6 5 5 5 5 4 4 3 3 2 2 2 1
9 13 14 8 8 10 11 10 8 8 7 5 5 5 5 4 4 4 4 4 4 5 5 5 6 7 7 7 7 7 7 6 6 5 5 5 5 4 3 3 3 2 2 2
10 13 14 9 7 6 9 11 7 7 7 6 6 8 4 3 3 3 4 4 4 5 5 5 6 6 7 7 7 6 6 6 5 5 5 5 5 4 4 3 3 3 3 2
13 13 10 3 5 8 12 5 3 5 6 6 6 4 1 4 4 4 4 4 4 5 5 4 5 6 7 6 5 5 5 5 5 5 5 5 4 4 4 4 4 3 3 3
12 14 10 4 6 7 2 2 2 4 5 5 5 4 3 5 5 5 5 5 5 5 5 5 5 7 7 6 5 5 5 5 5 4 4 4 5 4 4 4 5 4 3 3
7 6 2 1 3 1 2 2 2 3 4 5 6 5 4 5 5 5 5 5 4 5 6 5 5 6 6 6 5 5 5 5 5 5 4 4 5 5 5 5 4 4 4 3
6 5 3 3 3 2 2 3 2 2 3 4 5 5 4 4 5 5 5 5 4 5 6 6 5 5 5 6 6 6 6 5 5 5 5 4 3 4 3 3 4 4 3 3
8 5 4 4 3 2 1 1 1 2 3 4 4 4 4 4 5 5 5 4 4 4 5 6 6 6 6 6 6 6 6 6 5 5 4 4 3 1 1 1 0 1 2 3
5 2 4 3 2 2 2 1 1 1 2 3 4 4 4 4 4 4 5 4 4 4 5 5 6 6 5 6 7 6 6 6 5 4 4 4 4 4 4 3 4 3 3 1
5 4 4 4 3 3 3 2 1 1 2 2 2 4 4 4 4 4 4 4 4 4 4 4 5 5 5 6 6 6 5 5 4 5 5 5 4 4 4 3 3 2 2 1
4 4 4 4 3 3 2 1 1 1 1 2 2 3 4 4 4 4 4 4 3 4 4 4 4 4 5 5 6 6 5 5 5 4 5 5 5 4 4 4 4 4 5 5
4 5 5 3 3 3 3 2 2 2 2 2 3 3 4 4 4 4 3 3 3 4 4 4 4 4 4 5 6 6 5 4 4 4 4 4 4 4 4 4 3 4 4 6
3 3 4 4 4 3 4 3 3 3 3 3 3 3 3 3 3 3 3 4 5 4 3 4 4 4 4 5 5 5 4 4 4 4 4 4 5 4 4 4 4 4 4 4
3 3 3 3 3 3 3 3 3 2 3 3 2 2 3 3 3 3 3 3 3 3 3 3 3 3 4 5 5 4 4 5 7 5 5 4 4 4 4 4 4 4 4 3
3 2 2 2 2 2 2 2 2 2 2 2 2 2 3 3 3 2 2 2 3 2 2 2 2 3 4 4 4 3 3 4 4 4 4 4 4 4 5 5 5 5 4 5
2 2 2 2 2 2 2 2 2 2 2 2 2 2 2 2 2 2 2 3 3 3 3 2 3 4 4 4 4 4 4 5 5 4 4 4 5 5 5 4 4 4 4 4
1 1 1 1 1 2 2 2 2 2 2 2 2 2 2 2 2 3 3 3 3 2 2 2 4 4 4 5 5 5 5 5 5 5 5 5 5 5 5 5 5 5 4 4
1 1 1 1 1 1 1 1 1 2 2 2 2 2 2 2 2 3 3 3 3 2 3 4 4 4 4 4 6 5 5 5 5 5 5 5 5 5 5 5 5 5 4 4
1 0 1 1 1 1 1 1 2 2 2 2 2 2 3 3 4 4 4 3 2 2 3 4 4 3 2 4 5 4 5 5 5 5 5 5 5 5 5 6 6 5 5 5
0 0 1 1 1 1 1 1 1 2 2 2 2 3 3 3 3 3 3 2 2 2 3 3 1 3 4 5 4 4 5 5 5 5 5 5 5 5 5 6 5 5 5 5
1 1 1 1 1 1 1 1 1 1 1 2 2 3 3 3 3 3 2 2 2 3 4 2 4 4 6 5 4 5 5 5 5 5 5 5 5 5 5 5 5 5 5 6
1 1 1 1 2 1 1 1 2 2 2 2 2 2 3 3 3 2 2 2 3 4 4 4 6 6 6 5 5 5 5 4 4 4 4 4 4 4 4 4 4 4 4 4
1 1 1 2 1 2 2 2 2 1 1 2 2 2 2 2 3 3 3 4 5 5 4 4 5 6 6 5 5 5 5 5 5 5 5 4 4 4 4 4 5 4 4 4
1 1 1 1 1 2 2 2 2 2 2 2 2 2 3 2 3 3 4 4 4 4 4 4 4 5 5 5 5 5 5 4 4 4 4 4 3 3 3 4 3 3 3 4
Wind_Direction
253 250 222 219 215 216 228 244 253 252 255 249 233 234 212 196 193 186 183 180 173 171 166 171 174 173 175 172 168 170 172 176 177 176 175 179 176 171 169 182 188 178 186 185
238 234 233 229 222 223 231 241 249 255 253 255 247 231 218 206 201 197 193 189 182 176 170 172 176 176 173 172 172 171 172 172 169 172 169 170 167 157 149 150 159 166 164 160
233 222 232 234 227 226 231 235 242 247 252 250 245 235 226 211 205 204 200 193 188 181 178 177 177 175 175 172 168 168 171 173 171 174 174 176 174 161 158 162 164 159 150 145
236 218 231 235 221 228 233 237 238 246 248 244 246 232 227 214 200 199 194 189 183 179 173 173 172 170 173 169 166 167 172 175 175 177 174 168 168 164 169 172 167 156 148 137
233 228 233 218 209 217 223 231 231 239 243 237 228 217 208 190 180 183 181 181 177 174 166 165 166 164 164 167 166 170 178 180 177 176 173 167 169 167 167 167 158 150 131 119
230 236 235 221 184 207 230 230 217 225 230 232 224 231 196 154 159 159 158 161 164 161 158 162 161 158 162 165 163 169 175 176 172 171 175 175 170 168 165 168 163 154 131 116
229 236 240 215 176 193 224 228 197 220 225 225 223 261 170 154 157 156 152 148 150 151 150 150 155 156 162 161 163 164 162 159 160 170 174 171 164 160 163 164 150 139 129 119
226 233 228 167 188 215 269 360 227 221 218 213 210 211 166 142 144 148 149 142 145 146 144 143 150 156 156 153 152 147 146 145 148 161 171 161 160 159 163 164 156 153 151 144
231 242 5 203 227 300 313 276 264 237 220 207 202 188 163 148 146 148 144 138 142 141 139 139 150 158 156 152 149 145 145 143 146 152 159 163 167 168 171 178 179 172 175 164
232 227 240 244 247 251 267 267 268 241 222 202 194 183 164 152 151 152 145 139 143 143 144 145 153 159 154 148 151 151 151 153 159 161 159 157 175 179 182 183 184 179 178 169
230 229 228 224 240 254 250 243 227 217 207 201 191 182 168 164 162 158 151 144 148 147 145 148 149 152 151 150 155 158 158 160 165 165 157 160 155 129 187 125 36 211 190 183
245 239 252 257 273 272 262 261 239 218 202 195 189 182 174 170 165 163 157 151 154 147 147 152 149 150 153 158 165 171 172 172 172 173 164 170 161 145 64 60 80 64 39 356
279 286 287 280 274 266 264 268 251 227 205 186 174 173 175 173 172 172 169 163 160 155 147 150 152 154 158 165 173 182 184 179 179 179 175 176 178 182 167 135 118 121 142 150
256 264 257 251 251 249 254 251 232 216 184 174 173 177 182 180 180 185 184 174 169 160 158 164 167 165 165 168 174 179 183 173 186 183 185 186 186 196 192 187 174 171 171 175
238 243 248 249 253 247 232 212 200 189 185 189 189 186 190 188 186 189 185 179 178 175 176 174 173 170 169 175 180 184 187 179 184 187 190 189 190 198 195 194 193 183 166 159
246 233 223 223 228 229 220 214 215 203 201 205 200 189 185 181 180 184 182 179 185 186 182 184 183 178 178 185 185 187 186 177 194 204 200 197 201 207 201 196 198 198 192 173
240 230 214 208 214 229 229 220 211 202 207 210 202 197 189 182 183 184 184 184 179 180 187 192 191 182 185 194 199 197 188 177 186 208 214 210 210 213 211 211 209 204 203 169
246 253 248 238 228 232 241 229 210 199 205 205 202 200 199 199 203 196 184 178 178 188 199 198 187 188 190 196 204 206 202 201 204 215 217 215 216 215 214 216 214 211 202 171
230 239 248 247 243 242 247 241 217 199 191 195 204 199 187 187 187 192 200 203 205 209 213 215 207 205 196 195 203 205 209 212 213 216 218 207 216 219 219 217 216 216 213 199
232 237 257 262 256 244 242 231 204 190 185 183 187 188 187 186 195 199 201 219 233 240 201 208 218 215 206 197 210 215 213 216 219 217 216 220 224 222 220 220 219 216 211 211
215 220 229 228 227 233 227 215 202 193 183 190 204 210 213 215 222 228 229 230 218 219 211 201 221 219 209 194 210 223 221 222 222 222 222 222 222 222 222 221 222 222 218 216
205 200 239 239 214 203 194 197 194 193 194 202 225 231 226 228 232 237 241 252 237 204 225 222 222 203 191 206 217 221 224 226 226 226 226 224 223 223 225 224 221 218 216 217
279 233 262 270 252 215 186 188 191 201 215 229 241 246 245 250 250 244 240 232 227 200 234 233 182 147 182 218 219 216 219 225 229 228 227 228 226 225 227 228 227 221 216 216
238 238 258 271 246 217 234 252 254 248 251 254 247 251 255 250 244 245 246 189 194 212 236 179 162 182 210 225 221 219 220 223 228 232 231 230 229 228 229 230 227 221 217 217
258 249 235 230 231 239 234 236 250 258 263 266 266 257 253 256 260 261 257 233 202 218 225 185 185 198 218 224 219 220 220 221 224 231 228 228 232 231 229 230 230 228 227 224
277 264 262 262 268 261 249 241 244 249 257 276 284 278 267 249 241 237 233 225 221 223 231 211 193 199 218 221 219 220 222 212 211 221 226 226 227 228 227 226 229 229 229 226
279 265 246 251 243 253 260 257 260 260 261 268 283 283 276 260 244 239 234 228 221 218 218 214 212 212 217 220 218 217 219 220 221 223 219 218 218 219 215 217 222 224 227 221